STARLINK-4678 (53780 NORAD) Tracking and Keplerian Element Data

This shows tracking and keplerian element data for the satellite.

Feedback or suggestion? Click here.




ElementValue
Catalog53780
NameSTARLINK-4678
Epoch Orbit1106
Epoch Day325.33334491
Epoch Year2022
RAAN280.8745
Inclination53.2164
Eccentricity0.0001941
Argument of Perigee42.3232
Mean Anonmoly61.4953
Mean Motion15.08858422
Decay Rate3.852E-05
L11 53780U 22111H 22325.33334491 .00003852 00000+0 25984-3 0 9992
L22 53780 53.2164 280.8745 0001941 42.3232 61.4953 15.08858422 11060



Live tracking and technical data element details for STARLINK-4678 (NORAD 53780). STARLINK-4678 can be tracked NOW for your location showing map with azimuth and elevation plus other details from your city location.







IsCatalogInMostPopularTable: catalog: 53780, numindb: -1

Insert: records affected: 1


GetName: 53780 STARLINK-4678

Hit Count: inserted at: Thu, 08 Dec 2022 09:45:58 GMT